Wind_Speed
8 8 9 11 11 11 12 13 13 14 17 19 19 18 18 18 17 18 17 16 16 16 15 16 16 16 16 16 16 16 16 16 16 15 14 14 13 13 13 14 14 14 13 13
8 11 13 12 11 12 13 14 13 14 17 18 18 17 16 17 16 16 16 15 16 16 16 16 16 16 16 15 15 16 15 15 15 14 13 13 13 13 13 14 14 14 13 13
9 11 13 13 13 13 12 14 13 13 15 16 16 16 17 18 17 16 16 16 16 15 15 16 16 15 15 15 16 16 16 16 15 14 13 13 13 13 13 13 13 13 13 14
9 11 13 13 12 12 12 13 12 12 13 13 14 16 17 19 19 17 17 17 16 16 15 15 15 15 14 15 15 16 16 15 14 14 14 14 14 14 14 14 14 13 14 13
8 11 13 13 12 12 11 10 11 12 13 13 12 14 17 18 18 16 16 17 17 16 15 14 14 14 15 15 15 16 16 16 15 15 14 14 14 14 14 14 13 14 13 13
10 12 13 13 11 12 11 11 11 11 12 13 13 14 17 18 18 18 17 16 15 15 14 14 14 14 14 15 15 15 15 15 14 14 14 13 14 14 14 13 13 14 13 13
11 13 13 13 12 11 11 11 11 11 11 12 12 14 16 16 17 17 16 15 14 14 14 14 13 13 14 14 14 14 14 13 13 13 13 13 13 13 13 13 13 13 13 14
11 13 13 14 14 11 11 11 11 12 11 11 11 13 16 16 17 17 15 15 14 14 14 13 12 12 12 12 13 13 12 12 12 12 12 13 12 12 12 12 13 14 14 14
12 13 13 13 13 12 12 11 10 11 11 10 10 14 17 16 16 15 14 14 13 13 13 13 12 11 11 11 12 12 12 12 11 11 12 11 12 12 13 13 14 14 14 14
12 12 12 13 12 13 12 10 11 10 9 9 9 11 15 15 16 15 14 13 12 13 13 12 11 11 11 11 11 12 11 11 11 10 10 11 11 12 13 14 13 14 14 14
13 12 11 11 12 13 13 12 11 11 11 10 9 11 14 15 16 16 14 13 12 12 12 11 10 11 11 10 10 10 10 10 10 10 10 10 11 11 12 13 13 14 14 15
12 12 11 11 11 12 12 11 11 11 11 10 10 11 13 15 15 15 13 12 12 12 11 10 10 10 10 9 9 8 9 9 10 10 10 10 11 11 12 13 14 14 14 14
12 11 11 11 10 11 12 11 10 11 11 11 11 11 13 14 13 14 12 11 11 11 11 10 9 9 9 8 8 7 8 8 9 10 11 11 12 12 13 13 14 14 13 13
12 12 12 11 10 10 11 11 10 10 10 12 12 11 12 13 13 12 11 11 11 10 10 9 9 8 8 7 7 7 7 8 9 10 10 11 11 12 12 13 13 13 13 13
13 13 12 11 11 10 11 11 10 10 11 11 11 12 12 11 12 12 10 10 9 9 9 8 8 7 7 6 7 7 8 8 9 10 10 11 11 11 12 13 13 12 13 13
14 13 13 12 12 11 11 12 12 11 10 11 12 13 12 11 11 10 10 9 9 9 8 8 8 7 7 7 7 8 8 9 10 10 10 11 11 12 12 12 12 12 13 13
15 14 14 14 13 13 13 13 13 13 12 13 13 13 12 11 11 11 10 10 9 9 8 8 8 7 7 7 8 8 9 9 10 11 11 11 12 12 12 13 12 13 13 13
16 15 15 14 14 15 15 14 14 14 14 14 13 12 11 12 12 11 10 9 9 9 8 8 8 8 8 8 9 9 9 10 11 11 11 11 12 12 12 12 12 13 13 12
18 17 16 15 15 15 16 16 15 14 15 14 14 13 13 13 13 12 11 10 10 9 9 9 9 9 9 9 10 10 10 10 11 11 11 11 11 11 12 12 12 12 13 13
19 18 18 17 17 17 16 16 15 16 16 15 14 14 14 14 14 13 12 12 11 10 9 10 9 9 10 10 10 10 10 10 11 11 11 11 11 11 12 12 12 12 12 13
20 20 19 18 18 18 18 17 16 16 15 14 15 14 14 14 14 14 14 13 11 11 11 11 11 11 11 10 11 11 11 11 11 11 11 11 11 12 12 12 12 12 12 12
21 21 21 20 19 19 19 18 17 17 16 15 16 15 15 15 14 14 13 13 13 12 12 12 11 11 11 11 11 12 12 11 11 11 12 12 12 12 12 12 12 12 13 13
21 21 21 21 21 20 19 20 19 17 17 17 16 17 16 16 15 15 15 14 13 13 13 13 12 12 12 12 12 12 12 12 11 12 12 12 12 12 12 12 13 14 14 14
21 21 22 22 21 20 20 19 18 18 18 18 17 17 18 18 17 17 16 15 14 14 14 14 14 13 13 13 12 13 13 12 12 12 12 12 12 12 13 13 14 14 14 14
23 22 23 23 20 20 20 20 19 19 19 19 19 18 18 19 19 19 18 17 17 16 16 15 15 15 15 14 14 13 13 12 12 12 12 12 12 13 13 13 13 14 13 13
24 24 24 24 23 23 22 21 21 20 20 20 19 20 19 19 19 19 19 19 18 17 17 17 17 16 16 15 14 13 13 13 12 12 12 12 13 13 13 13 13 13 13 13
Wind_Direction
330 320 311 299 292 283 274 272 271 275 281 282 284 287 288 291 290 289 292 288 285 284 280 283 281 281 280 282 281 279 279 281 284 284 286 288 292 294 294 297 299 300 296 291
309 302 297 290 288 281 276 276 273 272 276 280 284 285 289 294 289 287 292 292 286 285 283 280 280 281 280 283 282 283 282 286 283 279 283 289 295 298 299 299 300 301 296 293
288 292 293 292 288 284 279 277 276 276 279 284 288 289 293 296 292 289 292 293 290 287 286 281 279 279 279 281 283 282 279 286 284 282 288 295 296 296 299 298 298 297 296 298
290 287 292 294 291 288 284 282 278 278 279 281 285 284 285 289 292 293 293 293 291 288 284 284 282 279 278 281 282 283 282 284 283 283 287 291 294 296 297 295 297 299 295 296
297 293 296 297 298 296 291 284 279 283 282 280 284 285 286 287 293 296 296 295 292 288 284 286 285 282 279 279 283 285 285 287 287 287 288 290 292 294 294 293 297 301 299 297
305 303 301 300 301 298 296 292 292 291 291 286 289 287 283 285 291 294 295 296 295 290 286 286 286 286 282 280 281 282 284 285 288 287 285 286 289 290 292 294 296 300 299 299
305 304 300 301 303 297 297 301 306 305 299 289 288 288 284 284 289 293 297 298 296 293 290 287 286 287 285 281 280 279 281 281 285 287 286 287 288 289 291 293 296 300 300 300
307 301 300 303 302 300 300 302 302 298 289 282 279 277 289 294 299 299 302 303 296 292 292 291 288 285 284 281 279 279 281 283 286 290 289 287 287 287 290 295 297 300 302 303
304 297 302 301 300 298 293 295 296 293 292 284 274 278 288 296 299 299 300 302 297 294 292 290 290 290 290 285 282 281 280 281 283 286 285 286 286 287 292 297 299 301 302 302
304 297 298 301 298 298 294 295 293 295 292 284 277 283 285 289 297 299 301 301 301 296 294 292 289 290 295 295 288 282 282 285 284 284 283 286 288 293 295 300 301 303 303 304
304 303 302 300 300 304 300 296 296 296 297 291 287 290 296 295 294 297 299 301 300 300 302 299 293 294 295 299 291 281 284 287 288 290 291 288 292 297 301 303 304 305 304 303
295 300 304 306 307 302 294 290 291 293 300 295 295 292 296 298 296 297 298 298 296 296 297 297 297 301 302 302 300 296 288 288 290 294 299 298 297 301 306 307 307 308 307 306
288 293 304 311 308 306 301 292 285 289 296 298 301 295 296 300 295 294 295 293 291 292 295 297 299 302 307 309 311 307 299 296 297 300 301 302 302 303 307 310 311 311 310 308
288 289 297 303 303 304 300 297 287 282 287 292 301 298 292 295 298 296 290 287 287 291 295 295 297 301 302 305 311 311 306 306 307 307 305 306 307 307 309 310 309 310 311 309
289 291 293 291 293 294 297 295 287 278 280 283 291 292 290 295 301 299 293 287 286 290 294 298 297 299 300 303 306 306 306 308 309 309 309 307 306 306 309 308 307 310 311 309
289 290 290 291 295 295 295 293 289 280 276 279 283 286 288 291 295 290 287 287 287 289 291 289 287 290 293 298 300 304 304 304 306 308 307 308 307 308 310 308 308 310 312 311
289 288 287 288 291 293 291 291 286 279 277 279 285 284 287 285 288 288 285 286 288 290 286 280 283 287 291 297 300 302 302 304 307 308 308 308 307 307 307 306 306 308 309 309
286 286 286 287 286 284 289 285 284 283 283 285 287 284 283 285 285 285 282 283 285 286 283 281 282 287 291 294 296 298 302 305 308 311 311 310 307 306 305 306 308 313 314 310
283 283 284 285 283 283 283 281 281 281 279 281 283 279 277 278 278 279 277 279 280 281 279 282 284 285 288 289 291 296 302 305 307 309 311 310 309 310 310 310 310 313 315 312
279 280 281 280 277 277 276 278 279 278 276 277 278 275 275 277 273 273 275 274 276 278 279 280 283 285 287 289 293 297 301 306 308 309 310 311 310 310 310 310 311 311 313 311
276 278 278 276 273 271 274 277 276 274 275 273 275 276 274 275 270 272 277 274 273 273 274 277 279 281 282 286 291 295 299 304 307 310 312 310 309 310 310 308 310 311 311 312
272 277 277 276 273 271 275 276 274 274 274 271 273 275 274 273 274 276 276 274 271 269 273 276 279 282 282 283 288 295 299 301 304 306 309 308 309 312 311 310 310 311 312 313
269 270 271 270 270 273 273 274 273 273 274 272 271 272 273 272 272 273 274 272 269 270 271 273 278 281 284 283 285 292 297 298 299 303 306 307 309 311 312 311 311 311 310 311
266 266 267 268 267 267 268 270 270 267 270 272 270 270 270 270 269 269 269 267 266 269 271 273 277 278 281 282 284 290 294 296 298 301 304 306 307 309 311 312 313 314 313 312
266 264 265 264 265 270 271 270 270 269 269 271 270 270 268 268 268 267 266 264 266 268 268 270 273 274 275 278 281 287 291 295 297 298 301 304 307 308 309 311 312 314 315 315
264 263 264 265 266 267 267 267 267 268 269 270 271 270 267 267 267 266 265 263 264 265 267 269 269 270 271 275 278 281 286 290 294 295 296 299 304 307 308 309 312 314 314 313
Height
5849 5850 5850 5850 5849 5850 5849 5849 5849 5849 5847 5845 5844 5842 5840 5837 5837 5835 5833 5832 5831 5831 5830 5829 5828 5828 5828 5828 5828 5827 5827 5827 5827 5827 5827 5827 5826 5825 5825 5824 5824 5823 5822 5821
5850 5849 5849 5848 5848 5847 5846 5846 5846 5846 5844 5842 5840 5839 5836 5834 5833 5832 5831 5829 5828 5828 5827 5826 5825 5825 5825 5825 5825 5824 5824 5823 5823 5823 5823 5823 5823 5822 5822 5821 5821 5820 5819 5818
5849 5848 5846 5845 5844 5844 5843 5843 5842 5842 5840 5838 5837 5834 5833 5832 5830 5829 5828 5827 5825 5825 5824 5823 5822 5822 5822 5822 5822 5821 5820 5821 5820 5820 5819 5820 5820 5820 5820 5819 5818 5817 5816 5816
5847 5846 5844 5843 5842 5841 5840 5839 5839 5838 5837 5835 5834 5832 5830 5828 5827 5825 5824 5823 5822 5822 5821 5820 5819 5819 5819 5819 5819 5818 5818 5818 5817 5817 5817 5817 5817 5817 5817 5816 5815 5814 5813 5813
5845 5843 5842 5841 5840 5838 5837 5836 5835 5834 5832 5831 5830 5830 5828 5825 5823 5822 5821 5820 5819 5818 5817 5817 5816 5816 5816 5816 5815 5815 5815 5815 5815 5815 5814 5815 5815 5814 5814 5813 5812 5811 5811 5810
5842 5841 5839 5838 5836 5835 5834 5833 5832 5830 5829 5828 5828 5827 5825 5822 5821 5819 5818 5817 5816 5815 5814 5814 5813 5813 5813 5812 5812 5812 5812 5812 5812 5812 5812 5812 5812 5811 5811 5810 5809 5808 5807 5806
5839 5838 5837 5835 5833 5832 5831 5830 5829 5828 5826 5826 5825 5824 5823 5819 5818 5817 5816 5815 5814 5813 5811 5811 5811 5810 5810 5809 5809 5809 5809 5809 5809 5808 5809 5809 5809 5808 5808 5807 5806 5805 5804 5803
5838 5837 5835 5832 5831 5829 5828 5827 5827 5826 5825 5824 5822 5821 5820 5818 5816 5815 5813 5812 5811 5810 5809 5808 5808 5808 5807 5807 5807 5806 5806 5806 5806 5806 5806 5806 5806 5805 5805 5804 5803 5802 5801 5800
5835 5834 5832 5830 5828 5827 5826 5825 5824 5823 5822 5821 5820 5819 5817 5816 5814 5813 5811 5810 5809 5808 5807 5806 5806 5805 5805 5804 5804 5804 5804 5804 5804 5804 5803 5803 5803 5802 5802 5801 5800 5799 5798 5796
5832 5831 5830 5828 5826 5824 5823 5822 5822 5820 5819 5819 5819 5817 5815 5813 5811 5810 5809 5808 5807 5806 5805 5805 5804 5803 5803 5802 5801 5801 5801 5801 5801 5801 5801 5801 5800 5800 5799 5798 5797 5796 5794 5793
5829 5828 5827 5825 5823 5822 5821 5820 5818 5818 5817 5816 5815 5817 5813 5811 5810 5808 5807 5806 5805 5804 5803 5803 5802 5801 5801 5800 5799 5799 5799 5799 5799 5799 5798 5797 5797 5797 5796 5795 5794 5793 5791 5789
5826 5825 5823 5822 5821 5819 5818 5817 5817 5816 5815 5814 5813 5815 5810 5809 5808 5806 5805 5804 5803 5802 5802 5801 5800 5800 5799 5798 5797 5797 5797 5797 5797 5796 5796 5795 5795 5794 5793 5792 5791 5789 5788 5786
5824 5823 5821 5819 5820 5818 5815 5814 5814 5814 5814 5812 5811 5813 5808 5806 5805 5804 5803 5802 5801 5800 5800 5800 5799 5798 5797 5797 5796 5796 5796 5795 5795 5795 5794 5794 5793 5792 5791 5789 5788 5786 5785 5783
5821 5820 5819 5818 5817 5815 5814 5813 5812 5812 5811 5810 5809 5809 5806 5804 5802 5801 5801 5800 5800 5799 5799 5798 5797 5796 5796 5796 5795 5795 5795 5795 5794 5793 5793 5791 5790 5789 5788 5787 5785 5784 5782 5780
5818 5817 5816 5815 5814 5813 5812 5811 5810 5809 5809 5808 5807 5805 5804 5802 5801 5799 5799 5799 5798 5798 5797 5797 5796 5796 5795 5795 5795 5794 5794 5793 5793 5792 5791 5790 5788 5787 5786 5784 5783 5781 5780 5778
5814 5814 5813 5812 5811 5810 5809 5808 5807 5807 5806 5805 5804 5804 5801 5800 5799 5798 5797 5797 5796 5796 5796 5795 5795 5795 5794 5794 5794 5793 5793 5792 5791 5790 5789 5788 5786 5785 5783 5782 5780 5779 5777 5775
5810 5809 5809 5808 5808 5807 5806 5805 5804 5803 5803 5802 5801 5800 5798 5798 5797 5796 5795 5795 5795 5795 5794 5794 5794 5793 5793 5793 5792 5792 5791 5790 5789 5788 5787 5785 5784 5782 5781 5779 5778 5776 5774 5772
5807 5806 5805 5805 5805 5803 5805 5803 5802 5801 5800 5799 5798 5797 5796 5795 5795 5794 5793 5793 5793 5793 5793 5792 5792 5792 5792 5791 5791 5790 5789 5788 5787 5785 5784 5783 5781 5780 5778 5777 5775 5773 5771 5770
5803 5802 5801 5801 5800 5799 5800 5799 5798 5797 5796 5796 5795 5794 5794 5793 5792 5792 5791 5791 5791 5791 5791 5791 5791 5790 5790 5789 5789 5788 5787 5786 5784 5783 5782 5780 5779 5777 5776 5774 5772 5771 5769 5767
5798 5798 5797 5796 5796 5795 5796 5795 5794 5794 5792 5792 5791 5791 5791 5790 5790 5789 5788 5788 5789 5789 5789 5789 5788 5788 5787 5787 5786 5785 5784 5783 5782 5780 5779 5777 5776 5774 5773 5771 5770 5768 5766 5764
5793 5792 5791 5791 5790 5790 5791 5790 5790 5790 5790 5788 5787 5787 5787 5787 5786 5786 5786 5786 5786 5786 5786 5786 5786 5786 5785 5785 5784 5783 5782 5781 5779 5778 5776 5775 5773 5772 5770 5768 5767 5765 5763 5762
5788 5787 5786 5786 5785 5787 5786 5786 5786 5785 5784 5783 5783 5783 5783 5783 5783 5783 5783 5783 5783 5783 5783 5783 5783 5783 5782 5782 5781 5780 5779 5778 5776 5775 5774 5772 5771 5769 5767 5766 5764 5762 5761 5759
5782 5782 5781 5782 5782 5781 5780 5780 5780 5780 5780 5779 5779 5779 5779 5779 5779 5779 5779 5779 5779 5779 5779 5780 5780 5779 5779 5779 5778 5777 5776 5775 5773 5772 5771 5769 5768 5766 5765 5763 5761 5759 5758 5755
5776 5776 5775 5775 5776 5775 5775 5775 5775 5775 5774 5774 5774 5775 5775 5775 5775 5775 5775 5775 5776 5776 5776 5776 5776 5776 5776 5775 5775 5774 5773 5771 5770 5769 5768 5766 5765 5763 5762 5760 5758 5756 5754 5752
5770 5770 5769 5769 5770 5769 5768 5770 5770 5770 5770 5769 5770 5770 5770 5770 5770 5770 5770 5771 5771 5771 5772 5772 5772 5772 5772 5771 5771 5770 5769 5768 5767 5766 5764 5763 5762 5760 5758 5757 5755 5753 5751 5749
5764 5764 5764 5764 5764 5764 5764 5764 5765 5765 5765 5765 5765 5765 5764 5764 5764 5765 5765 5766 5766 5766 5767 5767 5767 5767 5767 5767 5767 5766 5765 5764 5763 5762 5761 5760 5758 5757 5755 5754 5752 5749 5747 5746